User: anonymous   Login
Location: Epalinges
(46.5518°N, 6.6683°E)
Time: 04:31:32
(UTC+00:00)
Language:

YAOGAN 11 - Orbit

View from above orbital plane
View from above orbital plane
View from above satellite
View from above satellite

Ground track
Ground track

The orbit data is extracted from the following two-line orbital elements,

1 37165U 10047A   21260.61620665  .00000085  00000-0  20187-4 0  9992
2 37165  98.3181  25.0870 0039274  24.4672 335.8390 14.76364223591886
Epoch (UTC): 17 September 2021 14:47:20
Eccentricity: 0.0039274
inclination: 98.3181°
perigee height: 613 km
apogee height: 668 km
right ascension of ascending node: 25.0870°
argument of perigee: 24.4672°
revolutions per day: 14.76364223
mean anomaly at epoch: 335.8390°
orbit number at epoch: 59188

The dashed part of the orbit path shows where the satellite is in the earth's shadow,  

DLR